�N����,����,�~����,�C��,���x,�C��,����,���ϕ���,�ő�u�ԕ���,�ő厞����,���˗�,�I�_���x,�n�����x,�ő啗���N��,DTYPE
"17/08/03","00:10",0.0,26.4,77.4,1001.2,92.0,0.6,1.6,33.8,0.00,22.2,26.5,"00:02:32",1
"17/08/03","00:20",0.0,26.3,77.5,1001.7,98.3,0.7,1.7,89.6,0.00,22.1,26.5,"00:15:28",1
"17/08/03","00:30",0.0,26.4,77.9,1001.5,40.9,0.6,1.3,48.7,0.00,22.3,26.5,"00:22:08",1
"17/08/03","00:40",0.0,26.3,77.9,1001.5,40.0,0.7,2.1,153.1,0.00,22.2,26.3,"00:35:04",1
"17/08/03","00:50",0.0,26.3,77.7,1001.2,50.6,0.7,2.0,115.8,0.00,22.1,26.3,"00:43:28",1
"17/08/03","01:00",0.0,26.3,78.2,1001.2,26.7,0.6,1.6,42.0,0.00,22.2,26.5,"00:56:48",1
"17/08/03","01:10",0.0,26.2,77.9,1001.2,58.3,0.7,1.9,97.2,0.00,22.1,26.1,"01:00:16",1
"17/08/03","01:20",0.0,26.2,77.9,1001.2,89.5,0.6,1.6,70.2,0.00,22.1,26.2,"01:15:28",1
"17/08/03","01:30",0.0,26.2,78.3,1001.2,5.7,0.6,1.6,46.7,0.00,22.2,26.2,"01:28:24",1
"17/08/03","01:40",0.0,26.1,78.6,1001.0,356.1,0.5,1.0,46.0,0.00,22.1,26.2,"01:31:04",1
"17/08/03","01:50",0.0,26.0,79.0,1001.0,353.2,0.5,1.4,24.5,0.00,22.1,26.3,"01:48:56",1
"17/08/03","02:00",0.0,26.0,79.1,1001.0,3.4,0.7,1.7,0.6,0.00,22.1,26.2,"01:55:12",1
"17/08/03","02:10",0.0,26.0,79.0,1001.2,357.6,0.7,1.6,333.2,0.00,22.1,26.2,"02:03:04",1
"17/08/03","02:20",0.0,26.0,78.9,1001.2,7.2,0.7,1.8,39.6,0.00,22.1,26.3,"02:19:36",1
"17/08/03","02:30",0.0,25.9,78.5,1001.2,358.5,0.7,1.6,349.8,0.00,21.9,26.2,"02:22:40",1
"17/08/03","02:40",0.0,25.9,78.6,1001.0,353.7,0.5,1.2,342.7,0.00,21.9,26.2,"02:38:32",1
"17/08/03","02:50",0.0,25.9,78.6,1001.5,119.3,0.8,2.2,168.8,0.00,21.9,26.0,"02:48:56",1
"17/08/03","03:00",0.0,25.9,78.3,1001.0,115.0,0.7,1.8,127.5,0.00,21.9,26.2,"02:53:04",1
"17/08/03","03:10",0.0,25.9,78.6,1001.2,64.8,0.6,1.8,79.2,0.00,21.9,26.2,"03:00:24",1
"17/08/03","03:20",0.0,25.9,78.4,1001.0,46.8,0.6,2.2,31.9,0.00,21.9,26.0,"03:12:24",1
"17/08/03","03:30",0.0,25.9,78.6,1001.5,67.6,0.5,1.4,58.2,0.00,21.9,26.1,"03:20:40",1
"17/08/03","03:40",0.0,25.8,78.9,1001.5,30.6,0.5,1.3,20.4,0.00,21.9,26.0,"03:36:32",1
"17/08/03","03:50",0.0,25.8,78.6,1001.2,15.0,0.7,1.4,347.3,0.00,21.8,25.9,"03:46:00",1
"17/08/03","04:00",0.0,25.8,78.5,1001.0,16.9,0.8,2.6,334.4,0.00,21.8,25.8,"03:58:40",1
"17/08/03","04:10",0.0,25.7,79.1,1001.2,23.4,0.8,2.6,19.9,0.00,21.8,25.7,"04:06:40",1
"17/08/03","04:20",0.0,25.6,79.4,1001.2,50.5,1.3,3.3,0.8,0.00,21.8,25.9,"04:16:08",1
"17/08/03","04:30",0.0,25.5,79.9,1001.5,48.3,1.1,2.6,50.9,0.00,21.8,25.8,"04:25:52",1
"17/08/03","04:40",0.0,25.4,80.0,1001.7,31.7,0.8,2.5,34.0,0.00,21.7,25.8,"04:38:40",1
"17/08/03","04:50",0.0,25.3,80.2,1001.5,37.8,1.0,2.6,83.5,0.00,21.7,26.0,"04:41:28",1
"17/08/03","05:00",0.0,25.2,80.5,1001.5,24.2,0.8,2.1,15.3,0.00,21.6,25.7,"04:50:40",1
"17/08/03","05:10",0.0,25.2,80.8,1001.9,23.0,0.7,1.8,41.9,0.00,21.7,25.6,"05:09:12",1
"17/08/03","05:20",0.0,25.2,81.0,1001.9,44.1,0.7,2.2,45.9,0.00,21.7,25.7,"05:13:36",1
"17/08/03","05:30",0.0,25.1,81.1,1002.2,39.1,0.7,2.0,84.9,0.00,21.7,25.6,"05:21:12",1
"17/08/03","05:40",0.0,25.0,81.0,1002.2,15.7,0.7,2.5,38.7,0.00,21.6,25.8,"05:34:00",1
"17/08/03","05:50",0.0,25.0,80.8,1002.2,39.0,0.8,2.6,75.6,0.00,21.5,25.7,"05:47:20",1
"17/08/03","06:00",0.0,25.1,80.6,1001.9,33.7,0.7,2.1,102.2,0.00,21.6,25.7,"05:52:00",1
"17/08/03","06:10",0.0,25.2,80.5,1002.2,36.8,0.8,1.7,25.8,0.00,21.6,25.5,"06:06:08",1
"17/08/03","06:20",0.0,25.1,80.1,1002.6,73.4,0.7,2.1,83.6,0.00,21.5,25.4,"06:17:28",1
"17/08/03","06:30",0.0,25.1,79.8,1002.6,67.1,0.6,1.7,25.9,0.00,21.4,25.5,"06:25:36",1
"17/08/03","06:40",0.0,25.1,79.5,1002.2,106.1,1.1,3.2,118.1,0.00,21.3,25.5,"06:35:36",1
"17/08/03","06:50",0.0,25.3,79.4,1002.6,84.4,0.7,1.8,85.1,0.00,21.5,25.7,"06:41:28",1
"17/08/03","07:00",0.0,25.4,79.0,1002.6,58.1,0.5,2.0,53.6,0.00,21.5,25.3,"06:54:56",1
"17/08/03","07:10",0.0,25.4,78.9,1002.6,67.6,0.8,2.6,113.0,0.00,21.5,25.5,"07:08:32",1
"17/08/03","07:20",0.0,25.5,78.4,1003.1,89.2,1.0,2.6,98.3,0.00,21.5,25.5,"07:10:56",1
"17/08/03","07:30",0.0,25.5,78.7,1002.9,91.3,0.7,1.7,125.4,0.01,21.6,25.5,"07:21:52",1
"17/08/03","07:40",0.0,25.9,78.0,1003.1,77.9,0.8,1.9,115.5,0.03,21.8,25.7,"07:31:12",1
"17/08/03","07:50",0.0,26.1,77.5,1002.6,71.2,0.7,2.1,88.6,0.05,21.9,25.6,"07:40:32",1
"17/08/03","08:00",0.0,26.2,76.3,1002.6,96.9,1.1,2.8,128.0,0.05,21.7,25.6,"07:52:32",1
"17/08/03","08:10",0.0,26.4,76.8,1002.6,76.7,1.0,2.7,43.8,0.06,22.0,25.6,"08:05:52",1
"17/08/03","08:20",0.0,26.6,76.9,1002.4,122.8,0.8,2.7,161.4,0.07,22.3,25.7,"08:12:24",1
"17/08/03","08:30",0.0,26.6,75.2,1002.2,83.5,0.8,2.2,148.3,0.06,21.9,25.5,"08:21:12",1
"17/08/03","08:40",0.0,26.6,75.2,1002.2,59.8,0.8,2.9,68.6,0.06,21.9,25.8,"08:34:08",1
"17/08/03","08:50",0.0,26.8,75.3,1002.4,59.2,0.7,2.2,53.9,0.07,22.1,25.9,"08:48:40",1
"17/08/03","09:00",0.0,26.8,75.4,1001.9,84.8,0.7,2.0,15.3,0.07,22.1,25.7,"08:51:04",1
"17/08/03","09:10",0.0,26.8,75.2,1002.4,110.2,0.8,2.0,141.5,0.06,22.1,25.8,"09:04:48",1
"17/08/03","09:20",0.0,26.7,75.9,1001.9,122.6,1.1,2.9,183.9,0.09,22.1,25.7,"09:18:08",1
"17/08/03","09:30",0.0,27.2,75.4,1002.4,122.0,1.0,2.9,117.6,0.12,22.5,25.7,"09:28:00",1
"17/08/03","09:40",0.0,28.0,72.8,1002.2,84.4,0.8,2.1,88.5,0.18,22.7,25.8,"09:34:00",1
"17/08/03","09:50",0.0,28.2,71.6,1001.9,80.0,1.2,2.9,107.7,0.23,22.6,25.7,"09:47:52",1
"17/08/03","10:00",0.0,28.1,71.0,1001.9,91.3,1.6,3.5,13.5,0.20,22.4,26.0,"09:52:40",1
"17/08/03","10:10",0.0,28.6,70.5,1001.7,101.7,1.1,3.3,103.9,0.26,22.7,25.8,"10:07:12",1
"17/08/03","10:20",0.0,29.8,66.7,1002.2,100.1,1.1,2.6,151.5,0.40,23.0,26.4,"10:18:00",1
"17/08/03","10:30",0.0,30.5,66.5,1002.6,102.4,1.1,2.9,125.8,0.49,23.6,26.2,"10:20:32",1
"17/08/03","10:40",0.0,29.6,66.9,1002.9,87.3,1.5,3.4,57.9,0.35,22.8,26.4,"10:30:40",1
"17/08/03","10:50",0.0,29.4,66.7,1002.9,81.9,1.1,2.5,69.2,0.25,22.6,26.8,"10:47:04",1
"17/08/03","11:00",0.0,29.0,69.1,1002.6,90.7,1.1,2.7,61.7,0.17,22.8,26.7,"10:51:28",1
"17/08/03","11:10",0.0,28.4,68.8,1002.4,97.0,1.5,3.5,77.5,0.09,22.2,26.7,"11:05:52",1
"17/08/03","11:20",0.0,28.6,70.3,1001.7,99.9,1.3,2.9,43.6,0.13,22.7,26.5,"11:18:40",1
"17/08/03","11:30",0.0,29.5,68.3,1001.9,91.1,1.3,3.3,133.2,0.26,23.1,26.8,"11:23:04",1
"17/08/03","11:40",0.0,29.1,67.5,1002.2,108.0,1.3,2.5,100.6,0.24,22.5,26.8,"11:35:28",1
"17/08/03","11:50",0.0,28.9,68.1,1002.2,102.0,1.3,3.2,89.5,0.19,22.5,27.0,"11:42:16",1
"17/08/03","12:00",0.0,28.6,69.6,1001.7,102.1,1.5,2.8,80.9,0.13,22.5,26.8,"11:54:08",1
"17/08/03","12:10",0.0,29.9,66.3,1001.5,92.9,1.3,3.6,55.2,0.29,23.0,26.8,"12:01:36",1
"17/08/03","12:20",0.0,29.3,68.0,1001.9,94.5,1.3,3.5,87.1,0.23,22.8,26.9,"12:11:04",1
"17/08/03","12:30",0.0,30.2,66.5,1002.2,96.9,1.2,3.9,75.1,0.30,23.3,26.9,"12:26:00",1
"17/08/03","12:40",0.0,30.9,64.5,1002.2,103.3,1.5,4.5,88.4,0.44,23.5,27.2,"12:37:20",1
"17/08/03","12:50",0.0,31.4,62.5,1002.2,94.2,1.7,3.5,152.6,0.59,23.4,27.5,"12:42:56",1
"17/08/03","13:00",0.0,31.4,61.6,1002.4,75.3,1.6,4.0,56.6,0.56,23.2,27.4,"12:51:36",1
"17/08/03","13:10",0.0,31.9,62.1,1002.2,99.9,1.6,4.0,93.6,0.57,23.8,27.8,"13:03:12",1
"17/08/03","13:20",0.0,31.8,60.0,1002.4,99.8,1.8,4.4,125.4,0.47,23.1,27.7,"13:11:04",1
"17/08/03","13:30",0.0,30.6,62.9,1002.4,100.0,1.5,4.9,129.7,0.28,22.8,28.0,"13:29:44",1
"17/08/03","13:40",0.0,31.2,61.6,1001.9,120.4,2.0,3.9,152.1,0.41,23.0,28.1,"13:35:36",1
"17/08/03","13:50",0.0,30.6,62.8,1002.2,106.1,1.7,4.0,124.7,0.19,22.7,28.1,"13:42:08",1
"17/08/03","14:00",0.0,30.9,60.9,1001.9,81.1,1.8,3.9,32.4,0.29,22.5,27.9,"13:55:04",1
"17/08/03","14:10",0.0,31.4,61.7,1001.9,110.0,1.3,3.7,124.3,0.33,23.2,28.1,"14:07:04",1
"17/08/03","14:20",0.0,31.6,60.3,1001.7,105.8,1.6,2.8,140.5,0.30,23.0,27.9,"14:14:08",1
"17/08/03","14:30",0.0,31.0,60.4,1001.9,119.6,1.8,4.9,121.6,0.27,22.5,28.0,"14:24:16",1
"17/08/03","14:40",0.0,30.5,62.7,1001.5,124.3,1.8,3.9,127.8,0.15,22.6,28.0,"14:36:56",1
"17/08/03","14:50",0.0,30.6,62.0,1001.0,118.7,1.7,6.8,134.1,0.18,22.5,28.0,"14:43:28",1
"17/08/03","15:00",0.0,30.4,61.8,1001.0,98.6,1.8,3.7,96.9,0.11,22.3,28.0,"14:58:08",1
"17/08/03","15:10",0.0,30.8,61.7,1000.8,83.6,1.7,3.5,90.2,0.15,22.6,27.9,"15:06:32",1
"17/08/03","15:20",0.0,30.6,62.3,1000.5,104.9,1.3,2.6,165.7,0.12,22.6,28.0,"15:15:36",1
"17/08/03","15:30",0.0,30.5,62.5,1000.8,104.0,1.5,4.3,114.4,0.08,22.6,28.1,"15:22:56",1
"17/08/03","15:40",0.0,30.3,62.9,1000.5,107.7,1.6,3.7,148.5,0.07,22.5,27.8,"15:34:24",1
"17/08/03","15:50",0.0,30.1,64.4,1000.5,112.4,1.7,4.1,81.6,0.09,22.7,27.8,"15:47:20",1
"17/08/03","16:00",0.0,30.3,63.9,1000.8,112.6,1.6,4.8,74.8,0.12,22.7,27.6,"15:50:48",1
"17/08/03","16:10",0.0,30.1,63.8,1000.3,115.0,1.5,3.6,105.1,0.11,22.5,27.7,"16:08:24",1
"17/08/03","16:20",0.0,29.9,65.4,1001.0,107.3,1.6,4.8,73.0,0.09,22.7,27.5,"16:16:40",1
"17/08/03","16:30",0.0,29.8,65.7,1000.3,122.5,1.7,4.1,88.5,0.07,22.7,27.5,"16:20:48",1
"17/08/03","16:40",0.0,29.5,67.1,1000.5,125.1,1.7,4.4,158.0,0.09,22.8,27.5,"16:32:24",1
"17/08/03","16:50",0.0,29.8,66.3,1000.3,113.6,1.6,3.5,110.8,0.10,22.9,27.5,"16:44:24",1
"17/08/03","17:00",0.0,29.8,66.9,1000.3,99.2,1.2,3.2,111.0,0.12,23.0,27.6,"16:54:56",1
"17/08/03","17:10",0.0,29.7,66.7,1000.5,136.4,1.6,4.4,128.4,0.15,22.9,27.7,"17:03:44",1
"17/08/03","17:20",0.0,30.3,65.1,1000.8,97.9,1.6,4.8,128.3,0.18,23.1,27.5,"17:12:00",1
"17/08/03","17:30",0.0,30.2,65.0,1000.3,75.8,0.8,2.1,64.5,0.08,22.9,27.5,"17:29:28",1
"17/08/03","17:40",0.0,30.0,66.1,1000.8,101.0,1.2,2.9,121.0,0.08,23.0,27.5,"17:32:08",1
"17/08/03","17:50",0.0,29.7,67.1,1000.8,90.0,1.2,3.1,106.5,0.06,23.0,27.3,"17:41:44",1
"17/08/03","18:00",0.0,29.3,68.5,1000.5,104.1,1.1,2.8,221.1,0.03,22.9,27.5,"17:50:16",1
"17/08/03","18:10",0.0,29.0,69.0,1001.0,97.7,1.1,2.4,79.0,0.02,22.8,27.5,"18:05:44",1
"17/08/03","18:20",0.0,28.7,69.8,1000.5,108.2,1.3,3.1,108.7,0.01,22.7,27.2,"18:15:44",1
"17/08/03","18:30",0.0,28.5,71.0,1000.8,95.2,1.2,3.9,43.3,0.01,22.8,27.2,"18:27:36",1
"17/08/03","18:40",0.0,28.3,71.2,1001.2,107.2,1.3,3.2,71.8,0.00,22.6,27.2,"18:36:40",1
"17/08/03","18:50",0.0,28.2,72.0,1001.5,99.6,1.1,3.3,195.6,0.00,22.7,27.2,"18:40:48",1
"17/08/03","19:00",0.0,28.1,72.4,1001.5,108.8,1.1,2.9,113.1,0.00,22.7,27.2,"18:53:12",1
"17/08/03","19:10",0.0,27.9,73.0,1001.5,77.3,0.8,2.7,128.4,0.00,22.7,27.0,"19:01:12",1
"17/08/03","19:20",0.0,27.8,74.0,1001.5,83.1,0.8,2.4,143.6,0.00,22.8,27.2,"19:10:24",1
"17/08/03","19:30",0.0,27.7,74.2,1001.9,75.4,0.7,1.7,108.4,0.00,22.7,26.8,"19:21:52",1
"17/08/03","19:40",0.0,27.7,74.4,1002.2,66.4,0.7,2.1,67.9,0.00,22.8,26.8,"19:36:24",1
"17/08/03","19:50",0.0,27.6,74.8,1001.9,90.0,0.8,2.2,110.8,0.00,22.8,26.7,"19:46:00",1
"17/08/03","20:00",0.0,27.5,75.1,1002.2,61.9,0.8,2.4,108.4,0.00,22.7,26.9,"19:59:04",1
"17/08/03","20:10",0.0,27.5,75.1,1002.2,66.2,1.0,2.2,104.8,0.00,22.7,26.8,"20:08:00",1
"17/08/03","20:20",0.0,27.5,75.4,1002.4,48.0,1.0,2.5,57.9,0.00,22.8,26.7,"20:15:28",1
"17/08/03","20:30",0.0,27.5,75.4,1002.6,71.0,1.0,2.5,94.9,0.00,22.8,26.9,"20:24:40",1
"17/08/03","20:40",0.0,27.5,75.5,1002.2,73.3,1.2,3.5,152.9,0.00,22.8,26.5,"20:31:04",1
"17/08/03","20:50",0.0,27.4,75.8,1002.6,74.4,0.8,2.0,82.8,0.00,22.8,26.4,"20:46:48",1
"17/08/03","21:00",0.0,27.4,75.9,1002.6,89.2,1.0,3.4,46.3,0.00,22.8,26.6,"20:51:20",1
"17/08/03","21:10",0.0,27.3,76.2,1002.9,87.1,0.8,1.9,83.6,0.00,22.8,26.5,"21:01:36",1
"17/08/03","21:20",0.0,27.3,76.3,1002.6,65.1,1.0,2.5,137.2,0.00,22.8,26.3,"21:11:12",1
"17/08/03","21:30",0.0,27.3,76.3,1002.6,68.4,0.6,2.9,121.1,0.00,22.8,26.5,"21:23:20",1
"17/08/03","21:40",0.0,27.2,76.6,1002.6,90.4,0.8,1.6,59.8,0.00,22.8,26.5,"21:36:16",1
"17/08/03","21:50",0.0,27.3,76.6,1002.9,107.2,0.8,2.5,96.9,0.00,22.9,26.4,"21:43:36",1
"17/08/03","22:00",0.0,27.3,76.6,1002.9,89.1,0.7,2.2,83.9,0.00,22.9,26.2,"21:56:08",1
"17/08/03","22:10",0.0,27.2,76.5,1002.6,75.3,0.8,2.2,38.9,0.00,22.7,26.2,"22:05:12",1
"17/08/03","22:20",0.0,27.3,76.3,1002.6,75.0,0.7,2.0,87.8,0.00,22.8,26.2,"22:10:02",1
"17/08/03","22:30",0.0,27.1,76.5,1002.9,108.8,0.5,1.4,71.4,0.00,22.7,26.1,"22:20:08",1
"17/08/03","22:40",0.0,27.1,76.9,1002.6,127.7,0.7,1.7,172.4,0.00,22.7,26.3,"22:31:12",1
"17/08/03","22:50",0.0,27.1,76.7,1002.6,73.0,0.6,2.2,117.8,0.00,22.7,26.3,"22:43:52",1
"17/08/03","23:00",0.0,27.1,76.8,1002.9,102.3,0.8,1.8,185.8,0.00,22.7,26.0,"22:58:56",1
"17/08/03","23:10",0.0,27.2,76.9,1002.9,120.1,1.0,2.6,130.2,0.00,22.8,26.0,"23:06:24",1
"17/08/03","23:20",0.0,27.2,76.8,1002.9,118.2,1.0,2.7,132.6,0.00,22.8,25.9,"23:12:48",1
"17/08/03","23:30",0.0,27.2,77.0,1002.9,100.0,0.7,1.8,103.1,0.00,22.9,26.2,"23:23:44",1
"17/08/03","23:40",0.0,27.2,77.2,1002.4,117.8,1.0,2.2,118.9,0.00,22.9,26.2,"23:33:28",1
"17/08/03","23:50",0.0,27.1,77.3,1002.6,125.4,0.7,1.9,136.8,0.00,22.8,26.0,"23:47:12",1
"17/08/03","24:00",0.0,27.1,77.4,1002.9,95.2,0.7,2.1,143.7,0.00,22.8,26.0,"23:55:44",1
